Weather History for KGFL - December, 2014

Change the Weather History Date:

Monday, December 15, 2014

  Actual Average Record
Temperature  
Mean Temperature 33 °F 25 °F  
Max Temperature 35 °F 34 °F 51 °F (1975)
Min Temperature 31 °F 16 °F -14 °F (2005)
Degree Days  
Heating Degree Days 32 40  
Month to date heating degree days 540 553  
Since 1 July heating degree days 2001 2251  
Cooling Degree Days 0 0  
Month to date cooling degree days 0 0  
Year to date cooling degree days 392 352  
Moisture  
Dew Point 27 °F    
Average Humidity 81    
Maximum Humidity 92    
Minimum Humidity 70    
Precipitation  
Precipitation 0.00 in 0.10 in 0.80 in (1987)
Month to date precipitation 2.53 1.61  
Year to date precipitation 34.88 37.62  
Sea Level Pressure  
Sea Level Pressure 30.11 in    
Wind  
Wind Speed 3 mph (ENE)    
Max Wind Speed 10 mph    
Max Gust Speed 14 mph    
Visibility 10 miles    
Events      
T = Trace of Precipitation, MM = Missing Value Source: NWS Daily Summary

Daily Weather History Graph

Daily Weather History Graph

Search for Another Location

Airport or City:

Trip Planner

Search our weather history database for the weather conditions in past years. The results will help you decide how hot, cold, wet, or windy it might be!

Date:

Astronomy

Dec. 15, 2014 Rise Set
Actual Time 7:19 AM EST 4:19 PM EST
Civil Twilight 6:47 AM EST 4:51 PM EST
Nautical Twilight 6:11 AM EST 5:27 PM EST
Astronomical Twilight 5:36 AM EST 6:02 PM EST
Moon 12:25 AM EST (12/15) 12:27 PM EST (12/15)
Length of Visible Light 10h 04m
Length of Day
8h 59m
Last Quarter, 39% of the Moon is Illuminated
Dec 15
Last Quarter
Dec 21
New
Dec 28
First Quarter
Jan 4
Full
Jan 13
Last Quarter

Hourly Weather History & Observations

Time (EST) Temp. Windchill Dew Point Humidity Pressure Visibility Wind Dir Wind Speed Gust Speed Precip Events Conditions
12:53 AM 33.1 °F 30.0 °F 30.0 °F 89% 30.02 in 9.0 mi NE 3.5 mph - N/A   Overcast
1:53 AM 33.1 °F 30.0 °F 28.9 °F 85% 30.04 in 9.0 mi ENE 3.5 mph - N/A   Overcast
2:53 AM 35.6 °F 29.2 °F 26.6 °F 70% 30.03 in 10.0 mi NNW 8.1 mph - N/A   Overcast
3:53 AM 33.1 °F 30.0 °F 27.0 °F 78% 30.06 in 10.0 mi East 3.5 mph - N/A   Overcast
4:53 AM 32.0 °F 28.7 °F 28.0 °F 85% 30.08 in 10.0 mi East 3.5 mph - N/A   Overcast
5:53 AM 32.0 °F 27.5 °F 28.0 °F 85% 30.09 in 10.0 mi ENE 4.6 mph - N/A   Overcast
6:53 AM 32.0 °F 26.4 °F 27.0 °F 82% 30.11 in 10.0 mi ENE 5.8 mph - N/A   Overcast
7:53 AM 32.0 °F 26.4 °F 27.0 °F 82% 30.12 in 10.0 mi ENE 5.8 mph - N/A   Overcast
8:53 AM 32.0 °F 27.5 °F 27.0 °F 82% 30.13 in 10.0 mi NE 4.6 mph - N/A   Overcast
9:53 AM 32.0 °F 27.5 °F 27.0 °F 82% 30.14 in 10.0 mi NE 4.6 mph - N/A   Overcast
10:53 AM 32.0 °F 28.7 °F 27.0 °F 82% 30.14 in 10.0 mi ENE 3.5 mph - N/A   Overcast
11:53 AM 33.1 °F 28.7 °F 27.0 °F 78% 30.12 in 10.0 mi East 4.6 mph - N/A   Overcast
12:53 PM 33.1 °F 28.7 °F 27.0 °F 78% 30.10 in 10.0 mi ESE 4.6 mph - N/A   Overcast
1:53 PM 33.1 °F 30.0 °F 27.0 °F 78% 30.11 in 10.0 mi East 3.5 mph - N/A   Overcast
2:53 PM 33.1 °F 28.7 °F 26.1 °F 75% 30.12 in 10.0 mi East 4.6 mph - N/A   Overcast
3:53 PM 33.1 °F 28.7 °F 27.0 °F 78% 30.13 in 10.0 mi East 4.6 mph - N/A   Overcast
4:53 PM 33.1 °F - 27.0 °F 78% 30.13 in 10.0 mi Calm Calm - N/A   Overcast
5:53 PM 33.1 °F - 27.0 °F 78% 30.14 in 10.0 mi Calm Calm - N/A   Overcast
6:53 PM 32.0 °F 28.7 °F 27.0 °F 82% 30.15 in 10.0 mi East 3.5 mph - N/A   Overcast
7:53 PM 32.0 °F - 27.0 °F 82% 30.15 in 10.0 mi Calm Calm - N/A   Overcast
8:53 PM 32.0 °F 27.5 °F 27.0 °F 82% 30.15 in 10.0 mi ENE 4.6 mph - N/A   Overcast
9:53 PM 30.9 °F 27.5 °F 27.0 °F 85% 30.15 in 9.0 mi ENE 3.5 mph - N/A   Overcast
10:24 PM 30.9 °F - 28.0 °F 89% 30.12 in 10.0 mi Calm Calm - N/A   Overcast
10:32 PM 30.9 °F - 28.0 °F 89% 30.13 in 10.0 mi Calm Calm - N/A   Overcast
10:51 PM 30.2 °F - 28.4 °F 93% 30.13 in 7.0 mi Calm Calm - N/A   Overcast
10:53 PM 30.9 °F - 28.0 °F 89% 30.15 in 7.0 mi Calm Calm - N/A   Overcast
11:36 PM 30.9 °F - 28.0 °F 89% 30.12 in 8.0 mi Calm Calm - N/A   Overcast
11:53 PM 30.9 °F - 28.0 °F 89% 30.14 in 9.0 mi Calm Calm - N/A   Overcast